Location: Carthage
(33.8834°N, 106.6595°W)
Time: 13:05:25
(UTC+00:00)

DMSP B5D1-3 - Pass Details

Date: 13 February 2026
Orbit: 759 x 771 km, 98.5° (Epoch: 11 March)

Event Time Altitude Azimuth Distance (km) Brightness Sun altitude
Rises 13:18:21 0° 172° (S) 3,202 8.0 -7.8°
Reaches altitude 10° 13:20:39 10° 174° (S) 2,280 7.2 -7.4°
Maximum altitude 13:25:39 70° 258° (WSW) 806 4.5 -6.4°
Drops below altitude 10° 13:30:42 10° 342° (NNW) 2,299 6.7 -5.3°
Sets 13:33:02 0° 345° (NNW) 3,230 7.5 -4.9°
